Portada
METAR-TAF:

METAR-TAF

Aeroports :

West Bend Municipal Airport

West Bend, Wisconsin, Estats Units d'Amèrica

latitud: 43-25-20N, longitud: 088-07-41W, altitud: 270 m

Observació

L'informe es va fer fa 29 minuts, a les 11:35 UTC
Vent 10 kt del Sud-Oest amb ràfegues de 15 kt
Temperatura 2°C
Humitat 75%
Pressió 1018 hPa
Visibilitat: 16.1 km
Núvols disperses a una alçada de 8500 ft
Cel ennuvolat a una alçada de 11000 ft

METAR: KETB 161135Z AUTO 22010G15KT 10SM SCT085 BKN110 02/M02 A3006 RMK AO2

Hora: 07:04 (12:04 UTC)


TAF: manca

Observacions i pronòstics meteorològics de més de 4000 aeroports (METAR i TAF).

Les estacions disponibles són els punts grocs i vermells al mapa.

Posi el ratolí al punt desitjat per veure el nom de l'estació.

Feu clic per veure les observacions i els pronòstics meteorològics.

Per canviar el mapa: feu clic els botons verds amb una creu de color negre per apropar; al botó verd amb un guió per allunyar la imatge; o en les fletxes verdes per a mapes adjacents.


METAR-TAF: